#timestamp,LO_Frequency,Hit 
1502326815.3,286047000.8,N
1502326835.1,286046998.6,N
1502326855.9,286046999.1,N
1502326875.7,286046998.1,N
1502326895.5,286046998.7,N
1502326915.4,286046999.3,N
1502326935.2,286046997.0,N
1502326955.0,286046998.2,N
1502326955.9,286046998.2,N
1502326975.8,286047001.6,N
1502326995.6,286047001.9,N
1502327015.4,286046999.8,N
1502327035.3,286047001.8,N
1502327055.1,286047002.2,N
1502327056.0,286047002.2,N
1502327075.8,286047002.5,N
1502327095.7,286047003.7,N
1502327115.5,286047002.2,N
1502327135.3,286047000.8,N
1502327155.2,286046999.5,N
1502327175.9,286046998.4,N
1502327195.7,286046999.5,N
1502327215.6,286046998.8,N
1502327235.4,286046998.1,N
1502327255.2,286047001.2,N
1502327275.0,286047001.1,N
1502327276.0,286047001.1,N
1502327295.8,286046998.6,N
1502327315.6,286046996.6,N
1502327335.4,286047001.2,N
1502327355.3,286046998.1,N
1502327375.1,286047002.8,N
1502327395.8,286047001.3,N
1502327415.7,286047000.1,N
1502327435.5,286046998.3,N
1502327455.3,286047001.0,N
1502327475.2,286046998.5,N
1502327495.9,286047002.8,N
1502327515.7,286047002.8,N
1502327535.6,286047001.9,N
1502327555.4,286046999.7,N
1502327575.2,286047002.1,N
1502327595.1,286047002.9,N
1502327596.0,286047002.9,N
1502327615.8,286047003.4,N
1502327635.6,286047001.3,N
1502327655.4,286047003.8,N
1502327675.3,286047002.1,N
1502327695.1,286046998.2,N
1502327715.9,286047000.3,N
1502327735.7,286047002.3,N
1502327755.5,286047001.0,N
1502327775.4,286047001.9,N
1502327795.2,286047004.2,N
1502327815.0,286047003.8,N
1502327815.9,286047003.8,N
1502327835.8,286047004.3,N
1502327855.6,286047004.2,N
1502327875.4,286047009.2,P
1502327895.3,286047007.6,N
1502327915.1,286047005.5,N
1502327916.0,286047005.5,N
1502327935.8,286047006.4,N
1502327955.7,286047004.7,N
1502327975.5,286047003.7,N
1502327995.3,286047002.8,N
1502328015.1,286047002.4,N
1502328035.9,286047003.5,N
1502328055.7,286047003.6,N
1502328075.5,286047005.6,N
1502328095.4,286047007.5,P
1502328115.2,286047001.0,N
1502328135.0,286046999.9,N
1502328136.0,286046999.9,N
1502328155.8,286046999.2,N
1502328175.6,286046999.2,N
1502328195.4,286046996.5,N
1502328215.3,286046996.0,N
1502328235.1,286046995.9,N
1502328255.9,286046995.5,N
1502328275.7,286046997.0,N
1502328295.5,286046998.9,N
1502328315.3,286047000.9,N
1502328335.2,286047002.3,N
1502328355.0,286047002.8,N
1502328355.9,286047002.8,N
1502328375.7,286047000.9,N
1502328395.6,286047001.1,N
1502328415.4,286046998.3,N
1502328435.2,286046997.7,N
1502328455.1,286046997.7,N
1502328456.0,286046997.7,N
1502328475.8,286046999.6,N
1502328495.6,286047002.3,N
1502328515.5,286047000.9,N
1502328535.3,286047000.6,N
1502328555.1,286046999.5,N
1502328575.9,286046997.7,N
1502328595.7,286046995.2,N
1502328615.5,286046995.8,N
1502328635.4,286046995.5,N
1502328655.2,286046997.2,N
1502328675.0,286046999.1,N
1502328675.9,286046999.1,N
1502328695.8,286047001.1,N
1502328715.6,286046999.2,N
1502328735.4,286046999.2,N
1502328755.2,286046995.2,N
1502328775.1,286046996.1,N
1502328776.0,286046996.1,N
1502328795.8,286046996.1,N
1502328815.6,286046994.0,N
1502328835.5,286046990.9,P
1502328855.3,286046990.1,N
1502328875.2,286046990.8,N
1502328895.9,286046994.8,N
1502328915.7,286046996.4,N
1502328935.5,286046997.4,N
1502328955.4,286046995.0,N
1502328975.2,286046994.1,N
1502328995.0,286046993.5,N
1502328995.9,286046993.5,N
1502329015.8,286046993.7,N
1502329035.6,286046995.7,N
1502329055.4,286046993.3,N
1502329075.3,286046993.5,N
1502329095.1,286046992.0,P
1502329115.8,286047001.1,N
1502329135.7,286047002.1,N
1502329155.5,286047001.3,N
1502329175.3,286047005.7,N
1502329195.2,286047007.9,N
1502329215.0,286047007.5,N
1502329215.9,286047007.5,N
1502329235.7,286047005.8,N
1502329255.6,286047004.7,N
1502329275.4,286047006.0,N
1502329295.2,286047003.5,N
1502329315.1,286047007.6,N
1502329316.0,286047007.6,N
1502329335.8,286047005.6,N
1502329355.6,286047003.0,N
1502329375.5,286047001.8,N
1502329395.3,286047003.9,N
1502329415.1,286047002.0,N
1502329435.9,286047000.2,N
1502329455.7,286046998.6,N
1502329475.5,286047000.9,N
1502329495.3,286047001.6,N
1502329515.2,286047003.2,N
1502329535.9,286047005.5,N
1502329555.7,286047005.4,N
1502329575.6,286047006.5,N
1502329595.4,286047009.7,N
1502329615.2,286047009.9,N
1502329635.1,286047010.8,N
1502329636.0,286047010.8,N
1502329655.8,286047005.8,N
1502329675.6,286047005.5,N
1502329695.5,286047003.7,N
1502329715.3,286047006.0,N
1502329735.1,286047006.4,N
1502329755.9,286047003.1,N
1502329775.7,286047001.6,N
1502329795.5,286047003.2,N
1502329815.3,286047007.4,N
1502329835.2,286047007.1,N
1502329855.0,286047001.7,N
1502329855.9,286047001.7,N
1502329875.7,286047003.3,N
1502329895.6,286047009.1,N
1502329915.4,286047010.8,P
1502329935.5,286046999.7,N
1502329955.3,286047001.5,N
1502329975.1,286047001.9,N
1502329995.9,286047001.8,N
1502330015.7,286047003.7,N
1502330035.5,286047007.1,N
1502330055.4,286047002.9,N
1502330075.2,286047007.1,N
1502330095.0,286047002.9,N
1502330095.9,286047002.9,N
1502330115.8,286047003.2,N
1502330135.6,286047003.5,N
1502330155.4,286047004.0,N
1502330175.3,286047002.0,N
1502330195.1,286047001.9,N
1502330196.0,286047001.9,N
1502330215.8,286047003.9,N
1502330235.7,286047003.2,N
1502330255.5,286047003.8,N
1502330275.3,286047003.4,N
1502330295.1,286047002.9,N
1502330315.9,286047003.3,N
1502330335.7,286047002.8,N
1502330355.5,286047000.2,N
1502330375.4,286047004.0,N
1502330395.2,286047002.9,N
